Regional Weather Roundup
Issued by NWS

Home | Current Version | Previous Version | Text Only | Print | Product List | Glossary Off
Versions: 1 2 3 4 5 6 7 8 9 10 11 12 13 14 15 16 17 18 19 20 21 22 23 24 25 26 27 28 29 30 31 32 33 34 35 36 37 38 39 40 41 42 43 44 45 46 47 48 49 50

000
ASUS43 KLSX 291107
RWRMO

WEATHER SUMMARY FOR MISSOURI
NATIONAL WEATHER SERVICE SPRINGFIELD MO
500 AM CST THU JAN 29 2015

NOTE: "FAIR" INDICATES FEW OR NO CLOUDS BELOW 12,000 FEET WITH NO
       SIGNIFICANT WEATHER AND/OR OBSTRUCTIONS TO VISIBILITY.
       CURRENT SKY AND/OR WEATHER CONDITIONS ARE NOT AVAILABLE FOR
       CHILLICOTHE AND FARMINGTON.

MOZ001>031-035>038-043-044-053-054-291200-
...NORTHERN AND WESTERN MISSOURI...

CITY           SKY/WX    TMP DP  RH WIND       PRES   REMARKS
KANSAS CTY INT CLOUDY    39  31  72 NW16G37   30.11R
KANSAS C DTWN  LGT RAIN  42  32  67 NW17G31   30.10R
LEE`S SUMMIT   CLOUDY    42  34  73 NW22G32   30.09R
ST JOSEPH      CLOUDY    39  29  67 N23G35    30.13R WCI  28
CHILLICOTHE      N/A     41  34  76 NW10G23   30.05R
KIRKSVILLE     CLOUDY    37  32  82 NW22G28   29.99R WCI  26

$$
MOZ066>068-077>081-088>096-101>105-291200-
...SOUTHWEST MISSOURI...

CITY           SKY/WX    TMP DP  RH WIND       PRES   REMARKS
SPRINGFIELD    CLEAR     49  36  61 NW20G26   30.00R
JOPLIN         CLEAR     49  35  58 NW14      30.07R

$$
MOZ032>034-039>042-045>050-055>058-069>072-291200-
...CENTRAL MISSOURI...

CITY           SKY/WX    TMP DP  RH WIND       PRES   REMARKS
COLUMBIA       CLOUDY    42  34  73 NW24G40   29.96R
JEFFERSON CITY CLOUDY    46  35  65 NW21G32   29.97R
ROLLA          CLEAR     46  36  68 W22G32    29.91R
SEDALIA        CLOUDY    44  35  70 NW22G36   30.04R
WHITEMAN AFB   CLOUDY    44  35  71 N16G24    30.04R
WARRENSBURG    CLOUDY    43  36  75 NW18G25   30.05R
OSAGE BEACH    MOCLDY    46  36  66 W13G22    29.99R

$$
MOZ051-052-059>065-291200-
...EAST CENTRAL MISSOURI...

CITY           SKY/WX    TMP DP  RH WIND       PRES   REMARKS
ST LOUIS INTL  FAIR      51  38  60 W20G26    29.82R
SPIRIT OF STL  CLEAR     51  38  60 W13G22    29.85R
ST CHARLES     CLEAR     47  38  71 NW23G30   29.83R

$$
MOZ072>076-082>087-097>100-106>115-291200-
...SOUTH CENTRAL AND SOUTHEAST MISSOURI...

CITY           SKY/WX    TMP DP  RH WIND       PRES   REMARKS
CAPE GIRARDEAU NOT AVBL
FARMINGTON     CLEAR     46  37  71 S9        29.87S
POPLAR BLUFF   PTCLDY    49  40  71 SW10      29.89S
WEST PLAINS    CLEAR     49  40  71 W10       29.93R

$$



USA.gov is the U.S. government's official web portal to all federal, state and local government web resources and services.